This is the latest recevied weather packets stored in our database for station/object IU2EVW-13. If no packets are shown the sender has not sent any weather packets the latest 10 day(s).
| Time | Temp. | Humidity | Pressure | Rain* | Wind** | Luminosity | Snow |
|---|---|---|---|---|---|---|---|
| 1788075851 | 19.44° C | 69% | 1020 hPa | - | - | - | - |
| 1788074650 | 18.89° C | 67% | 1019.9 hPa | - | - | - | - |
| 1788073449 | 18.33° C | 68% | 1019.9 hPa | - | - | - | - |
| 1788072247 | 18.33° C | 68% | 1019.9 hPa | - | - | - | - |
| 1788071046 | 18.33° C | 68% | 1019.8 hPa | - | - | - | - |
| 1788069845 | 17.22° C | 71% | 1019.9 hPa | - | - | - | - |
| 1788068644 | 17.78° C | 70% | 1019.7 hPa | - | - | - | - |
| 1788067442 | 17.78° C | 71% | 1019.6 hPa | - | - | - | - |
| 1788066241 | 17.22° C | 68% | 1019.5 hPa | - | - | - | - |
| 1788065040 | 17.22° C | 70% | 1019.5 hPa | - | - | - | - |
| 1788063839 | 17.22° C | 69% | 1019.3 hPa | - | - | - | - |
| 1788062637 | 17.22° C | 69% | 1019.3 hPa | - | - | - | - |
| 1788061436 | 17.78° C | 67% | 1019.3 hPa | - | - | - | - |
| 1788060235 | 17.22° C | 68% | 1019.3 hPa | - | - | - | - |
| 1788059031 | 17.22° C | 67% | 1019.2 hPa | - | - | - | - |
| 1788057829 | 17.78° C | 67% | 1019.2 hPa | - | - | - | - |
| 1788056628 | 17.78° C | 66% | 1019.2 hPa | - | - | - | - |
| 1788055427 | 17.78° C | 66% | 1019.3 hPa | - | - | - | - |
| 1788054225 | 17.78° C | 67% | 1019.3 hPa | - | - | - | - |
| 1788053024 | 18.33° C | 65% | 1019.1 hPa | - | - | - | - |
| 1788051823 | 18.33° C | 64% | 1019 hPa | - | - | - | - |
| 1788050622 | 18.33° C | 66% | 1018.9 hPa | - | - | - | - |
| 1788049420 | 18.33° C | 65% | 1019 hPa | - | - | - | - |
| 1788048219 | 18.33° C | 65% | 1019.1 hPa | - | - | - | - |
| 1788047015 | 18.89° C | 63% | 1019 hPa | - | - | - | - |
* Rain since midnight (hover to see other rain measurements)
** Current wind speed in m/s (hover to see current wind gust speed)